Showing default

CAPELLA-14 (ACADIA), 59444

Orbit data source: Space-Track

CAPELLA-14 (ACADIA), 59444 is a payload satellite owned by Capella Space (US) in LEO that was launched on Sun, 07 Apr 2024 UTC via an FALCON 9 launch vehicle from the Air Force Eastern Test Range (AFETR). Payload-class satellites include a variety of spacecraft equipped with specific instruments for various scientific and technological missions. These include communications satellites like Starlink; space stations such as the ISS; scientific satellites like the Hubble; Earth observation satellites from companies like Planet Labs, Umbra, and HawkEye 360; GPS; miniature CubeSats for education and research; and military/defense satellites.

Loading next visibility...
Identifier
59444, 2024-066C
Orbit
LEO
Country
Flag of USUS
Related business
Manufacturer
Capella Space
Mission
Operational spacecraft
Bus & Motor
ACADIA, Unknown motor
Mass
180 kg wet, ~150 kg dry
Launch date (UTC)
2024-04-07 (1 year ago)
Launch vehicle
FALCON 9
Launch site
Air Force Eastern Test Range (AFETR)
Object type
Payload
Rocket body
Debris
Shape & HBR
Unknown
Radar Cross Section
Large (>1 m²)

Expand to show TLE details & history
Last TLE update: 16 hours ago

TLE from 16 hours ago
0 CAPELLA-14 (ACADIA)
1 59444U 24066C   25259.38113434  .00016273  00000-0  12184-2 0  9991
2 59444  45.6052 251.5879 0006080 315.2979  44.7413 15.02611895 71130
Epoch: 2025-09-16T09:08Z
TLE epoch observation values (Epoch: 2025-09-16T09:08:50.006Z)
Latitude
-0.00004°
Longitude
118.80725°
Altitude
555.917 km
Speed
7.587 km/s
True Right ascension
16h 46m 21s
True Declination
0° 00' 00"
Sunlit
Object was in daylight at epoch
Visualization orbit readout
Latitude
Unknown
Longitude
Unknown
Altitude
Unknown
Speed
Unknown
Apparent Right ascension
Unknown
Apparent Declination
Unknown
Sunlit
N/A
Visualization observer readout
Local Sidereal Time
17:56:21
Azimuth
Unknown
Elevation
Unknown
Doppler factor
Unknown
Orbital elements
Apogee altitude
564.556 km
Perigee altitude
556.118 km
Semi-major axis
6,938.474 km
Eccentricity
0.00061
Inclination
45.6052°
RAAN
251.5879°
Arg. of periapsis
315.2979°
True anomaly
44.79037°
Mean anomaly
44.7413°
Eccentric anomaly
44.76583°
Mean motion
3.75532 °/min
Orbital period
95.86 mins
BSTAR
0.0012184
Loading maneuver chart data...
Computing Atmospheric mass density...
Loading historical data...
Loading historical data...
Loading historical data...
Loading historical data...
Loading historical data...
Loading historical data...
Loading historical data...

Documentation

Showing up to 5 results
|